Regional Weather Roundup
Issued by NWS

Home | Current Version | Previous Version | Graphics & Text | Print | Product List | Glossary On
Versions: 1 2 3 4 5 6 7 8 9 10 11 12 13 14 15 16 17 18 19 20 21 22 23 24 25 26 27 28 29 30 31 32 33 34 35 36 37 38 39 40 41 42 43 44 45 46 47 48 49 50
675
ASUS44 KLIX 262001
RWRLA
LOUISIANA WEATHER ROUNDUP
NATIONAL WEATHER SERVICE NEW ORLEANS LA
200 PM CST THU FEB 26 2015

NOTE: "FAIR" INDICATES FEW OR NO CLOUDS BELOW 12,000 FEET WITH NO
      SIGNIFICANT WEATHER AND/OR OBSTRUCTIONS TO VISIBILITY.
      SKY/WX - SKY CONDITION AND SIGNIFICANT WEATHER.
      TMP - AIR TEMPERATURE.    DP   - DEWPOINT TEMPERATURE.
      RH  - RELATIVE HUMIDITY.  PRES - PRESSURE.
      HX  - HEAT INDEX.         WCI  - WIND CHILL INDEX.

*  THESE STATIONS ARE NOT NWS OR FAA STATIONS AND ARE NOT UNDER
   NWS QUALITY CONTROL.

LAZ040-048-061>063-065-066-069-262100-
SOUTHEAST LOUISIANA

CITY           SKY/WX    TMP DP  RH WIND       PRES   REMARKS
N.O. AUDUBON   NOT AVBL
N.O. INTL ARPT PTSUNNY   44  35  70 N15       30.09S
N.O. LAKEFRONT CLOUDY    46  35  65 N16       30.10R
SLIDELL        PTSUNNY   46  35  65 N13G23    30.08S
BATON ROUGE    MOSUNNY   49  34  56 NE13      30.10F
BOOTHVILLE     CLOUDY    45  37  73 N10G17    30.07R
BELLE CHASSE   CLOUDY    46  35  65 N12G22    30.07F
BOGALUSA*        N/A     46  34  62 N9        30.11S
GALLIANO*      CLOUDY    48  38  68 MISG      30.08S
NEW ROADS*     FAIR      49  34  54 N12G18    30.12S
GONZALES*      NOT AVBL
HAMMOND*       NOT AVBL
HOUMA*         NOT AVBL
PORT FOURCHON* NOT AVBL

$$

LAZ041-044-053-054-262100-
SOUTHWEST LOUISIANA

CITY           SKY/WX    TMP DP  RH WIND       PRES   REMARKS
LAKE CHARLES   MOSUNNY   53  36  52 N12G20    30.12F
LAFAYETTE      MOSUNNY   48  34  58 N18       30.12S
PATTERSON      PTSUNNY   46  37  71 NE12      30.10F
SALT POINT       N/A     49  36  61 N10G17    30.08F
NEW IBERIA     MOSUNNY   50  37  61 N13       30.11F
CHENAULT AIRPK NOT AVBL

$$

LAZ027-028-262100-
CENTRAL LOUISIANA

CITY           SKY/WX    TMP DP  RH WIND       PRES   REMARKS
FORT POLK      SUNNY     52  35  52 N13G20    30.13S
ALEXANDRIA INT MOSUNNY   49  36  61 NW12      30.15S
ALEXANDRIA     MOSUNNY   51  34  52 NE8       30.15F

$$

LAZ001-002-262100-
NORTHWEST LOUISIANA

CITY           SKY/WX    TMP DP  RH WIND       PRES   REMARKS
SHREVEPORT     CLOUDY    39  32  76 N14       30.22S WCI  31
BARKSDALE AFB  NOT AVBL
DTN SHREVEPORT CLOUDY    37  31  78 N10       30.23R WCI  30

$$

LAZ014-016-262100-
NORTHEAST LOUISIANA

CITY           SKY/WX    TMP DP  RH WIND       PRES   REMARKS
MONROE         CLOUDY    40  35  83 N10       30.20S WCI  33
TALLULAH       CLOUDY    39  31  72 NW10G17   30.19R WCI  32

$$




USA.gov is the U.S. government's official web portal to all federal, state and local government web resources and services.